sanya , China , ASIA

  • Saturday
    February 23

    Cloudy  Cloudy

    86 °F  70 °F

    No wind  No wind

        

  • Sunday
    February 24

    Cloudy  Light rain

    86 °F  73 °F

    No wind  No wind

        

  • Monday
    February 25

    Cloudy  Cloudy

    86 °F  73 °F

    No wind  No wind

        

  • Tuesday
    February 26

    Cloudy  Cloudy

    88 °F  73 °F

    No wind  No wind

        

  • Wednesday
    February 27

    Cloudy  Cloudy

    88 °F  73 °F

    No wind  No wind

        

  • Thursday
    February 28

    Cloudy  Cloudy

    88 °F  73 °F

    No wind  No wind

        

  • Friday
    March 1

    Cloudy  Cloudy

    88 °F  68 °F

    No wind  No wind

        

Date   Weather Temperature Humidity Total_rain Visibility Wind
11:00 Cloudy 84°F 91% 0mm 999.9km Southeast  5.5m/s
14:00 Cloudy 86°F 91.2% 0mm 999.9km Southeast  6.0m/s
17:00 Cloudy 81°F 96.9% 0mm 999.9km Southeast  5.9m/s
20:00 Cloudy 75°F 99.8% 0mm 999.9km Southeast  4.9m/s
23:00 Cloudy 73°F 97.3% 0mm 999.9km Southeast  4.7m/s
02:00 Cloudy 73°F 97.3% 0mm 999.9km Southeast  3.8m/s
05:00 Cloudy 72°F 97.2% 0mm 999.9km Southeast  3.2m/s
08:00 Cloudy 77°F 95.4% 0mm 999.9km Southeast  3.5m/s
11:00 Cloudy 81°F 88% 0mm 999.9km Southeast  3.5m/s
14:00 Cloudy 86°F 88.4% 0mm 999.9km Southeast  4.0m/s
17:00 Cloudy 79°F 95% 0mm 999.9km Southeast  3.5m/s
20:00 Cloudy 78°F 99% 0mm 999.9km Southeast  5.1m/s
23:00 Light rain 76°F 98.8% 2.3mm 999.9km Southeast  3.9m/s
02:00 Light rain 75°F 98% 2.3mm 999.9km Southeast  4.4m/s
05:00 Light rain 74°F 97.3% 2.3mm 999.9km Southeast  4.2m/s
08:00 Light rain 74°F 95.7% 2.3mm 999.9km Southeast  3.7m/s
11:00 Cloudy 85°F 91.1% 0mm 999.9km Southeast  4.3m/s
14:00 Cloudy 86°F 91.2% 0mm 999.9km Southeast  5.2m/s
17:00 Cloudy 82°F 97.8% 0mm 999.9km Southeast  4.5m/s
20:00 Cloudy 77°F 98.6% 0mm 999.9km Southeast  4.6m/s
23:00 Cloudy 76°F 99.4% 0mm 999.9km Southeast  4.8m/s
02:00 Cloudy 76°F 98.8% 0mm 999.9km Southeast  4.6m/s
05:00 Cloudy 74°F 98.9% 0mm 999.9km Southeast  4.9m/s
08:00 Cloudy 74°F 98.1% 0mm 999.9km Southeast  5.4m/s
11:00 Cloudy 81°F 84.8% 0mm 999.9km Southeast  4.6m/s
14:00 Cloudy 87°F 89% 0mm 999.9km Southeast  4.9m/s
17:00 Cloudy 84°F 93.5% 0mm 999.9km Southeast  4.9m/s
20:00 Cloudy 75°F 94.1% 0mm 999.9km Southeast  4.2m/s
23:00 Cloudy 74°F 94.6% 0mm 999.9km Northeast  3.9m/s
02:00 Cloudy 74°F 95.3% 0mm 999.9km Northeast  5.1m/s
05:00 Cloudy 74°F 96% 0mm 999.9km Northeast  5.8m/s
08:00 Cloudy 74°F 96.5% 0mm 999.9km Northeast  5.1m/s
11:00 Cloudy 80°F 83.3% 0mm 999.9km Southeast  5.7m/s
14:00 Cloudy 87°F 88.2% 0mm 999.9km Southeast  5.6m/s
17:00 Cloudy 83°F 93.5% 0mm 999.9km Southeast  3.1m/s
20:00 Cloudy 74°F 96.8% 0mm 999.9km Southeast  4.2m/s
23:00 Cloudy 74°F 97.2% 0mm 999.9km Southeast  4.1m/s
02:00 Cloudy 75°F 97.6% 0mm 999.9km Southeast  4.1m/s
05:00 Cloudy 75°F 97.9% 0mm 999.9km Northeast  3.7m/s
08:00 Cloudy 75°F 97.1% 0mm 999.9km Southeast  3.2m/s
11:00 Cloudy 83°F 83.3% 0mm 999.9km Southeast  2.2m/s
14:00 Cloudy 87°F 90.5% 0mm 999.9km Southeast  4.5m/s
17:00 Cloudy 82°F 94% 0mm 999.9km Southeast  3.0m/s
20:00 Cloudy 76°F 95.6% 0mm 999.9km Southeast  5.4m/s
23:00 Cloudy 76°F 99.2% 0mm 999.9km Southeast  4.8m/s
02:00 Cloudy 74°F 97.5% 0mm 999.9km Southeast  4.1m/s
05:00 Cloudy 76°F 97.7% 0mm 999.9km Southeast  4.1m/s
08:00 Cloudy 79°F 85.2% 0mm 999.9km Southeast  3.5m/s
11:00 Cloudy 85°F 82.4% 0mm 999.9km Southeast  1.9m/s
14:00 Cloudy 87°F 87.6% 0mm 999.9km Southeast  4.2m/s
17:00 Cloudy 79°F 91.8% 0mm 999.9km Southeast  4.6m/s
20:00 Cloudy 76°F 96.8% 0mm 999.9km Southeast  4.2m/s
23:00 Sunny 71°F 97.7% 0mm 999.9km Southeast  4.2m/s
02:00 Sunny 70°F 97.9% 0mm 999.9km Southeast  3.5m/s
05:00 Sunny 70°F 97.8% 0mm 999.9km Southeast  3.1m/s